AKDT,Max TemperatureF,Mean TemperatureF,Min TemperatureF,Max Dew PointF,MeanDew PointF,Min DewpointF,Max Humidity, Mean Humidity, Min Humidity, Max Sea Level PressureIn, Mean Sea Level PressureIn, Min Sea Level PressureIn, Max VisibilityMiles, Mean VisibilityMiles, Min VisibilityMiles, Max Wind SpeedMPH, Mean Wind SpeedMPH, Max Gust SpeedMPH,PrecipitationIn, CloudCover, Events, WindDirDegrees
2013-5-1,46,42,39,45,41,35,100,89,79,30.16,29.96,29.83,10,6,2,28,16,37,1.05,8,Rain,140
2013-5-2,46,44,42,46,44,42,100,96,89,30.49,30.32,30.08,10,5,2,16,10,21,0.59,8,Rain,189
2013-5-3,50,46,42,48,44,41,100,95,82,30.52,30.43,30.26,10,7,0,17,3,24,1.56,8,Fog-Rain,142
2013-5-4,50,48,46,48,46,43,100,94,83,30.34,30.29,30.26,10,7,2,18,7,25,0.39,8,Rain,191
2013-5-5,46,44,43,45,43,41,100,94,86,30.26,30.17,30.07,10,8,3,14,6,,0.01,8,,250
2013-5-6,46,44,41,43,36,32,100,75,60,30.26,30.17,30.08,10,10,6,18,12,,0.00,5,Rain,328
2013-5-7,53,44,35,41,36,31,89,73,61,30.26,30.19,30.12,10,10,10,16,8,,0.00,1,,331
2013-5-8,57,47,37,45,41,37,97,80,62,30.19,30.15,30.12,10,10,10,9,3,,0.00,0,Fog,273
2013-5-9,66,54,43,47,42,37,100,74,34,30.23,30.21,30.18,10,9,0,9,2,,0.00,1,Fog,250
2013-5-10,48,45,42,45,44,42,100,94,86,30.24,30.14,29.98,10,8,0,8,2,,0.00,8,Fog-Rain,271
2013-5-11,55,50,46,50,47,44,97,89,72,29.96,29.75,29.64,10,10,8,15,6,25,0.13,8,Rain,191
2013-5-12,52,48,46,49,47,45,100,94,82,29.63,29.59,29.56,10,10,7,16,4,23,0.12,8,Rain,230
2013-5-13,50,48,45,48,46,41,100,94,76,29.70,29.62,29.55,10,8,2,25,6,32,0.30,8,Rain,212
2013-5-14,48,46,44,46,44,43,100,93,86,29.89,29.81,29.71,10,7,2,17,9,25,0.55,8,Rain,161
2013-5-15,48,46,43,45,42,39,96,87,69,30.02,29.95,29.89,10,10,10,8,5,,0.05,7,Rain,174
2013-5-16,50,46,43,43,41,39,93,81,71,30.01,29.96,29.85,10,10,10,13,5,,0.00,7,,194
2013-5-17,52,48,46,46,44,41,100,87,71,29.83,29.76,29.69,10,10,10,17,5,22,0.01,8,Rain,198
2013-5-18,48,44,39,47,41,33,100,87,63,30.29,29.96,29.70,10,8,4,23,10,31,0.51,8,Rain,204
2013-5-19,46,40,35,37,35,31,100,83,67,30.52,30.43,30.29,10,9,2,15,8,22,0.14,7,Rain-Snow,123
2013-5-20,54,44,35,36,31,23,93,62,35,30.51,30.42,30.32,10,10,10,18,7,25,0.00,2,,348
2013-5-21,62,54,46,38,29,24,59,41,26,30.30,30.17,30.08,10,10,10,20,12,24,0.00,0,,337
2013-5-22,55,48,42,45,40,34,86,73,55,30.13,30.08,30.05,10,10,6,20,7,,0.00,0,Fog,318
2013-5-23,54,48,44,44,42,39,90,79,69,30.12,30.05,29.97,10,10,10,18,9,22,0.00,3,Fog,323
2013-5-24,55,50,44,47,44,43,96,86,69,30.03,29.98,29.96,10,10,10,9,4,,0.00,6,,293
2013-5-25,54,50,48,48,47,46,97,91,83,30.06,30.04,30.01,10,10,9,7,2,,0.01,8,Fog-Rain,288
2013-5-26,57,52,46,49,47,45,100,90,64,30.01,29.95,29.92,10,5,0,8,3,,0.00,4,Fog,231
2013-5-27,61,52,45,51,48,43,97,83,69,29.91,29.77,29.63,10,10,10,9,2,,0.00,0,,252
2013-5-28,64,56,48,53,50,47,96,81,65,29.64,29.61,29.58,10,10,10,10,3,,0.00,1,,219
2013-5-29,55,52,48,52,49,46,100,92,84,29.90,29.77,29.59,10,10,6,13,5,21,0.18,7,Rain,311
2013-5-30,59,52,46,52,49,46,100,87,72,30.10,29.98,29.90,10,10,10,14,4,,0.01,5,Rain,288
2013-5-31,51,50,48,49,48,46,100,94,87,30.27,30.22,30.10,10,9,6,10,6,,0.23,8,Rain,245